Home > Weather > Springfield > Past weeks

Flag for USA Past Weather in Springfield, Massachusetts, USA — Yesterday and Last 2 Weeks

Now
80 °F

Partly sunny.


Feels Like: 82 °F
Forecast: 67 / 85 °F
Wind: 3 mph from North

Location: Barnes Municipal Airport

Current Time: May 29, 2016 at 11:29:39 AM

Latest Report: May 29, 2016 at 10:53 AM


Visibility: 10 mi

Pressure: 30.14 "Hg

Humidity: 64%

Dew Point: 67 °F

Location of SpringfieldLocation

Past Weather in Springfield — Graph

°F

Springfield Temperature Yesterday

Maximum temperature yesterday: 91 °F (at 1:53 PM)
Minimum temperature yesterday: 62 °F (at 5:53 AM)
Average temperature yesterday: 76 °F

High & Low Weather Summary for the Past Weeks

 TemperatureHumidityPressure
High91 °F (May 28, 1:53 PM)97% (May 20, 12:04 AM)30.25 "Hg (May 20, 12:04 AM)
Low37 °F (May 17, 2:53 AM)20% (May 16, 4:53 PM)29.57 "Hg (May 14, 10:53 PM)
Average62 °F61%29.99 "Hg
* Reported May 14 9:53 AM — May 29 9:53 AM, Springfield, Weather by CustomWeather, © 2016

Note: Actual official high and low records may vary slightly from our data, if they occured in-between our weather recording intervals... More about our weather records

Advertising

Springfield Weather History for the Previous 24 Hours

Scroll right to see more
 ConditionsComfort  
Time TempWeatherWind HumidityBarometerVisibility
9:53 AM
Sun, May 29
78 °FScattered clouds.8 mph66%30.13 "Hg10 mi
8:53 AM77 °FSunny.5 mph64%30.14 "Hg10 mi
7:53 AM73 °FSunny.3 mph71%30.14 "Hg10 mi
6:53 AM69 °FSunny.6 mph84%30.13 "Hg10 mi
5:53 AM65 °FClear.No wind94%30.11 "Hg7 mi
4:53 AM66 °FClear.No wind87%30.10 "Hg9 mi
3:53 AM66 °FClear.No wind90%30.10 "Hg9 mi
2:53 AM68 °FClear.No wind84%30.10 "Hg10 mi
1:53 AM70 °FClear.3 mph81%30.09 "Hg10 mi
12:53 AM72 °FClear.6 mph78%30.10 "Hg10 mi
11:53 PM
Sat, May 28
73 °FClear.5 mph79%30.09 "Hg10 mi
10:53 PM75 °FClear.5 mph76%30.08 "Hg10 mi
9:53 PM77 °FClear.5 mph74%30.09 "Hg10 mi
8:53 PM79 °FSunny.8 mph69%30.07 "Hg10 mi
7:53 PM83 °FSunny.6 mph63%30.05 "Hg10 mi
6:53 PM85 °FSunny.3 mph61%30.04 "Hg10 mi
5:53 PM88 °FSunny.7 mph54%30.03 "Hg10 mi
4:53 PM90 °FSunny.8 mph48%30.03 "Hg10 mi
3:53 PM91 °FSunny.6 mph45%30.03 "Hg10 mi
2:53 PM91 °FSunny.12 mph45%30.04 "Hg10 mi
1:53 PM91 °FSunny.12 mph45%30.05 "Hg10 mi
12:53 PM89 °FSunny.6 mph52%30.07 "Hg10 mi
11:53 AM84 °FSunny.5 mph61%30.08 "Hg10 mi
Weather by CustomWeather, © 2016

See weather overviewHow to use our weather pages